Regional Weather Roundup
Issued by NWS

Home | Current Version | Previous Version | Graphics & Text | Print | Product List | Glossary On
Versions: 1 2 3 4 5 6 7 8 9 10 11 12 13 14 15 16 17 18 19 20 21 22 23 24 25 26 27 28 29 30 31 32 33 34 35 36 37 38 39 40 41 42 43 44 45 46 47 48 49 50
000
ASUS43 KMPX 300010
RWRMN
WEATHER ROUNDUP FOR MINNESOTA
NATIONAL WEATHER SERVICE TWIN CITIES/CHANHASSEN MN
700 PM CDT FRI JUL 29 2016


NOTE: "FAIR" INDICATES FEW OR NO CLOUDS BELOW 12,000 FEET WITH NO
SIGNIFICANT WEATHER AND/OR OBSTRUCTIONS TO VISIBILITY. N/A MEANS
CURRENT SKY AND/OR WEATHER CONDITIONS ARE NOT AVAILABLE.

MNZ060>063-068>070-300100-
   Twin Cities Metro

CITY           SKY/WX    TMP DP  RH WIND       PRES   REMARKS
TWIN CITIES    MOSUNNY   77  52  41 NE8       30.02F
6HR MIN TEMP:  75; 6HR MAX TEMP:  79;

ST PAUL        SUNNY     77  52  41 NE6       30.02F
CRYSTAL        SUNNY     76  50  40 NE9       30.01F
BLAINE         MOSUNNY   77  54  44 NE8       30.03S
LAKEVILLE      SUNNY     73  54  49 E7        30.02F
EDEN PRAIRIE   SUNNY     78  51  38 N5        30.01F
6HR MIN TEMP:  77; 6HR MAX TEMP:  81;

LAKEVILLE      SUNNY     73  54  49 E7        30.02F
SOUTH ST PAUL  SUNNY     76  49  37 NE8       30.01F
LAKE ELMO      FAIR      75  55  50 NE3       30.03F
$$
MNZ001>005-007-008-013>017-022>024-027-028-300100-
   Northwest Minnesota

CITY           SKY/WX    TMP DP  RH WIND       PRES   REMARKS
BEMIDJI        CLOUDY    75  58  55 SE8       30.02S
HALLOCK        SUNNY     79  55  44 W3        29.99S
ROSEAU         CLOUDY    79  63  57 CALM      30.00F
WARROAD        MOSUNNY   77  63  61 E6        30.01F
THIEF RVR FALL MOSUNNY   76  53  44 CALM      30.02F
CROOKSTON      MOSUNNY   75  54  46 CALM      30.01S
FOSSTON        MOSUNNY   79  50  36 W3        30.02F
DETROIT LAKES  CLOUDY    77  57  50 W5        30.04S
MOORHEAD       MOSUNNY   77  57  50 CALM      30.01F
PARK RAPIDS    MOSUNNY   75  60  59 SE8       30.03S
MAHNOMEN       FAIR      77  55  47 SW5       30.02S
$$
MNZ006-009>011-018-025>026-300100-
   North Central Minnesota

CITY           SKY/WX    TMP DP  RH WIND       PRES   REMARKS
BAUDETTE       PTSUNNY   78  55  44 S6        30.01S
FLAG ISLAND    SUNNY     75  54  46 SE6       30.00S
INTL FALLS     PTSUNNY   75  58  55 SE5       30.02F
6HR MIN TEMP:  73; 6HR MAX TEMP:  78;

WASKISH        CLOUDY    77  57  50 CALM      30.02S
BIG FORK       SUNNY     75  55  50 CALM      30.04S
LONGVILLE      MOSUNNY   75  54  46 CALM      30.04S
GRAND RAPIDS   SUNNY     74  55  51 SE3       30.06F
CRANE LAKE     SUNNY     75  52  43 S1        30.05S
ORR            SUNNY     75  54  46 CALM      30.02S
COOK           SUNNY     75  57  53 CALM      30.05F
WALKER         FAIR      74  58  56 S7        30.03S
$$
MNZ012-019>021-037-300100-
   Northeast Minnesota

CITY           SKY/WX    TMP DP  RH WIND       PRES   REMARKS
DULUTH         MOSUNNY   68  51  54 SE10      30.07S
6HR MIN TEMP:  68; 6HR MAX TEMP:  74;

ELY            PTSUNNY   73  52  46 CALM      30.05F
HIBBING        SUNNY     73  51  46 SE6       30.04F
EVELETH        SUNNY     73  51  45 S5        30.06F
DULUTH HARBOR  SUNNY     68  61  77 NE6       30.06F
TWO HARBORS    SUNNY     73  55  53 E6        30.05S
SILVER BAY     SUNNY     72  52  49 E3        30.05F
GRAND MARAIS     N/A     68  55  63 CALM      30.06F
G MARAIS ARPRT SUNNY     64  45  48 CALM      30.11S
$$
MNZ029>031-032-039>041-046>048-054>057-064-300100-
   West Central Minnesota

CITY           SKY/WX    TMP DP  RH WIND       PRES   REMARKS
FERGUS FALLS   CLOUDY    70  63  78 SW6       30.04F
WHEATON        SUNNY     79  63  57 S3        30.03F
MORRIS         MOSUNNY   79  57  47 S5        30.02F
ALEXANDRIA     PTSUNNY   75  55  49 W3        30.06F
ELBOW LAKE     CLOUDY    69  63  81 E5        30.04F
GLENWOOD       MOSUNNY   79  55  44 CALM      30.05F
APPLETON       MOSUNNY   79  55  44 CALM      30.02F
BENSON         MOSUNNY   79  54  41 CALM      30.03F
ORTONVILLE     SUNNY     77  57  50 CALM      30.02F
MADISON        SUNNY     77  55  47 CALM      30.02F
WILLMAR        FAIR      77  57  50 E3        30.05S
$$
MNZ033>034-036-042>043-049>051-058-059-300100-
   Central Minnesota

CITY           SKY/WX    TMP DP  RH WIND       PRES   REMARKS
ST CLOUD       SUNNY     76  55  48 NE3       30.03F
6HR MIN TEMP:  74; 6HR MAX TEMP:  78;

SAUK CENTRE    FAIR      74  56  54 CALM      30.05S
PAYNESVILLE    MOSUNNY   75  54  47 NE5       30.04F
AITKIN         SUNNY     77  50  38 CALM      30.03F
PINE RIVER     PTSUNNY   73  61  64 S3        30.07S
BRAINERD       SUNNY     76  54  46 NE5       30.04F
STAPLES        CLOUDY    75  57  53 SW7       30.04S
LONG PRAIRIE   FAIR      72  59  64 CALM      30.05S
LITTLE FALLS   SUNNY     73  52  46 E5        30.04F
LITCHFIELD     SUNNY     73  57  56 NE3       30.04S
BUFFALO        SUNNY     75  51  41 NE7       30.04S
MAPLE LAKE     SUNNY     75  57  54 NE6       30.04F
HUTCHINSON     SUNNY     75  58  54 NE7       30.05S
$$
MNZ037-044-045-052-053-300100-
   East Central Minnesota

CITY           SKY/WX    TMP DP  RH WIND       PRES   REMARKS
PRINCETON      SUNNY     75  54  46 NE6       30.03F
MORA           SUNNY     73  50  43 CALM      30.05F
CAMBRIDGE      SUNNY     77  57  50 NE3       30.02S
RUSH CITY      SUNNY     74  56  54 NE3       30.03F
MOOSE LAKE     SUNNY     72  54  53 E6        30.04S
HINCKLEY       FAIR      75  55  50 E5        30.04F
CLOQUET        SUNNY     70  52  52 E6        30.06S
MCGREGOR       SUNNY     73  54  49 E8        30.05S
$$
MNZ071>073-080-081-089-090-097-098-300100-
   Southwest Minnesota

CITY           SKY/WX    TMP DP  RH WIND       PRES   REMARKS
MONTEVIDEO     SUNNY     79  57  47 CALM      30.04F
GRANITE FALLS  SUNNY     79  56  46 NE6       30.04F
CANBY          SUNNY     77  57  50 E5        30.04F
MARSHALL       SUNNY     76  56  49 NE8       30.03F
REDWOOD FALLS  MOSUNNY   78  53  41 VRB3      30.02F
OLIVIA         PTSUNNY   77  55  47 NE6       30.03F
PIPESTONE      SUNNY     77  50  38 NE5       30.05F
WINDOM         CLOUDY    73  55  53 NE7       30.04F
WORTHINGTON    SUNNY     74  55  51 NE9       30.05F
JACKSON        SUNNY     73  52  46 N10       30.05S
TRACY          SUNNY     76  58  53 E5        30.04F
SLAYTON        SUNNY     74  55  52 E7        30.06S
$$
MNZ065>067-074>077-082>085-091>093-300100-
   South Central Minnesota

CITY           SKY/WX    TMP DP  RH WIND       PRES   REMARKS
MANKATO        SUNNY     75  52  43 N9        30.03S
NEW ULM        SUNNY     75  54  46 NE10      30.03S
ST JAMES       SUNNY     68  52  56 NE5       30.04S
FAIRMONT       SUNNY     73  57  56 N7        30.02S
GLENCOE        SUNNY     75  56  51 NE3       30.03S
FARIBAULT      SUNNY     73  54  49 NE6       30.03S
OWATONNA       SUNNY     75  52  43 NE7       30.03S
WASECA         PTSUNNY   72  54  53 N7        30.04S
ALBERT LEA     CLOUDY    72  61  68 NE6       30.03S
$$
MNZ078>079-086>088-094>096-300100-
   Southeast Minnesota

CITY           SKY/WX    TMP DP  RH WIND       PRES   REMARKS
ROCHESTER      MOSUNNY   74  61  63 N9        30.03S
6HR MIN TEMP:  71; 6HR MAX TEMP:  77;

RED WING       SUNNY     77  50  38 NE3       30.00F
STANTON        SUNNY     75  54  46 NE3       30.01S
DODGE CENTER   MOSUNNY   73  61  64 CALM      30.04R
WINONA         CLOUDY    73  61  64 CALM      30.00S
AUSTIN         CLOUDY    72  61  68 NE5       30.02S
PRESTON        CLOUDY    71  62  73 N5        30.02S
$$
ABBREVIATIONS USED IN REMARKS
   TC - TEMPERATURES IN CELSIUS
  WCI - WIND CHILL INDEX
   HX - HEAT INDEX
  VSB - VISIBILITY
$$




USA.gov is the U.S. government's official web portal to all federal, state and local government web resources and services.